Vlieland, Netherlands

2:27 AM CEST on April 24, 2017 (GMT +0200)
Vlieland

Weather History for EHVL - October, 2012

Change the Weather History Date:

Saturday, October 6, 2012

  Actual Average Record
Temperature  
Mean Temperature 54 °F -  
Max Temperature 59 °F 53 °F 64 °F (2006)
Min Temperature 50 °F 47 °F 40 °F (2016)
Degree Days  
Heating Degree Days 10    
Growing Degree Days 4 (Base 50)    
Moisture  
Dew Point 46 °F    
Average Humidity 80    
Maximum Humidity 94    
Minimum Humidity 67    
Precipitation  
Precipitation 0.00 in - - ()
Sea Level Pressure  
Sea Level Pressure 29.78 in    
Wind  
Wind Speed 14 mph ()    
Max Wind Speed 21 mph    
Max Gust Speed -    
Visibility 5.9 miles    
Events Rain    
Averages and records for this station are not official NWS values.
T = Trace of Precipitation, MM = Missing Value Source: Averaged Metar Reports

Daily Weather History Graph

Daily Weather History Graph

Search for Another Location

Airport or City:

Trip Planner

Search our weather history database for the weather conditions in past years. The results will help you decide how hot, cold, wet, or windy it might be!

Date:

Astronomy

Oct. 06, 2012 Rise Set
Actual Time 7:51 AM CEST 7:04 PM CEST
Civil Twilight 7:16 AM CEST 7:39 PM CEST
Nautical Twilight 6:36 AM CEST 8:19 PM CEST
Astronomical Twilight 5:55 AM CEST 9:00 PM CEST
Moon 10:26 PM CEST (10/6) 2:13 PM CEST (10/6)
Length of Visible Light 12h 22m
Length of Day
11h 13m
Waning Gibbous, 68% of the Moon is Illuminated
Oct 6
Waning Gibbous
Oct 8
Last Quarter
Oct 15
New
Oct 22
First Quarter
Oct 29
Full

Hourly Weather History & Observations

Time (CEST) Temp. Dew Point Humidity Pressure Visibility Wind Dir Wind Speed Gust Speed Precip Events Conditions
12:25 AM 55.4 °F 46.4 °F 72% 29.77 in 6.2 mi West 19.6 mph - N/A   Mostly Cloudy
12:55 AM 55.4 °F 46.4 °F 72% 29.77 in 6.2 mi West 20.7 mph - N/A   Mostly Cloudy
1:25 AM 55.4 °F 46.4 °F 72% 29.77 in 6.2 mi West 19.6 mph - N/A   Mostly Cloudy
1:55 AM 53.6 °F 46.4 °F 77% 29.74 in 6.2 mi West 17.3 mph - N/A   Light Drizzle
2:25 AM 53.6 °F 46.4 °F 77% 29.74 in 6.2 mi WSW 15.0 mph - N/A   Drizzle
2:55 AM 51.8 °F 44.6 °F 76% 29.74 in 6.2 mi WSW 15.0 mph - N/A   Drizzle
3:25 AM 50.0 °F 44.6 °F 82% 29.74 in 5.6 mi NW 17.3 mph - N/A Rain Light Rain
3:38 AM 50.0 °F 44.6 °F 82% 29.74 in 6.2 mi WNW 13.8 mph - N/A Rain Light Rain Showers
3:55 AM 50.0 °F 46.4 °F 87% 29.74 in 6.2 mi West 12.7 mph - N/A Rain Light Rain
4:19 AM 50.0 °F 46.4 °F 87% 29.74 in 6.2 mi West 13.8 mph - N/A Rain Light Rain
4:25 AM 50.0 °F 46.4 °F 87% 29.74 in 6.2 mi West 13.8 mph - N/A Rain Drizzle
4:29 AM 50.0 °F 46.4 °F 87% 29.74 in 5.6 mi West 12.7 mph - N/A   Drizzle
4:33 AM 50.0 °F 46.4 °F 87% 29.74 in 5.6 mi West 11.5 mph - N/A   Drizzle
4:37 AM 50.0 °F 46.4 °F 87% 29.74 in 5.6 mi West 12.7 mph - N/A   Drizzle
4:55 AM 50.0 °F 46.4 °F 87% 29.74 in 6.2 mi West 11.5 mph - N/A   Drizzle
5:02 AM 50.0 °F 46.4 °F 87% 29.74 in 5.0 mi West 12.7 mph - N/A Rain Rain
5:15 AM 50.0 °F 46.4 °F 87% 29.74 in 6.2 mi West 12.7 mph - N/A Rain Light Rain
5:25 AM 50.0 °F 46.4 °F 87% 29.71 in 5.0 mi WNW 10.4 mph - N/A Rain Light Rain
5:38 AM 50.0 °F 46.4 °F 87% 29.71 in 6.2 mi WNW 10.4 mph - N/A Rain Light Rain
5:55 AM 50.0 °F 46.4 °F 87% 29.71 in 6.2 mi West 8.1 mph - N/A Rain Drizzle
6:08 AM 50.0 °F 46.4 °F 87% 29.71 in 6.2 mi West 9.2 mph - N/A Rain Light Rain
6:20 AM 50.0 °F 46.4 °F 87% 29.71 in 6.2 mi West 9.2 mph - N/A Rain Light Rain
6:25 AM 50.0 °F 46.4 °F 87% 29.71 in 6.2 mi West 10.4 mph - N/A Rain Light Rain
6:32 AM 50.0 °F 46.4 °F 87% 29.71 in 5.6 mi West 10.4 mph - N/A   Drizzle
6:36 AM 50.0 °F 46.4 °F 87% 29.71 in 6.2 mi West 10.4 mph - N/A   Drizzle
6:41 AM 50.0 °F 46.4 °F 87% 29.71 in 6.2 mi West 11.5 mph - N/A Rain Light Rain
6:49 AM 50.0 °F 46.4 °F 87% 29.71 in 6.2 mi West 11.5 mph - N/A Rain Light Rain
6:55 AM 50.0 °F 46.4 °F 87% 29.71 in 3.7 mi West 10.4 mph - N/A Rain Light Rain
6:59 AM 50.0 °F 46.4 °F 87% 29.71 in 5.0 mi West 12.7 mph - N/A Rain Light Rain Showers
7:08 AM 50.0 °F 46.4 °F 87% 29.71 in 6.2 mi WNW 15.0 mph - N/A Rain Light Rain
7:21 AM 50.0 °F 46.4 °F 87% 29.71 in 6.2 mi West 13.8 mph - N/A   Light Drizzle
7:25 AM 50.0 °F 46.4 °F 87% 29.71 in 6.2 mi West 13.8 mph - N/A   Light Drizzle
7:46 AM 50.0 °F 46.4 °F 87% 29.71 in 4.3 mi West 13.8 mph - N/A   Light Drizzle
7:50 AM 50.0 °F 46.4 °F 87% 29.71 in 5.6 mi West 15.0 mph - N/A   Light Drizzle
7:55 AM 50.0 °F 46.4 °F 87% 29.71 in 3.7 mi WNW 16.1 mph - N/A   Drizzle
8:02 AM 50.0 °F 46.4 °F 87% 29.71 in 3.1 mi WNW 17.3 mph - N/A   Heavy Drizzle
8:13 AM 50.0 °F 46.4 °F 87% 29.71 in 3.1 mi WNW 13.8 mph - N/A   Drizzle
8:20 AM 50.0 °F 46.4 °F 87% 29.71 in 3.7 mi WNW 12.7 mph - N/A   Drizzle
8:25 AM 50.0 °F 46.4 °F 87% 29.71 in 4.3 mi WNW 13.8 mph - N/A   Drizzle
8:33 AM 50.0 °F 46.4 °F 87% 29.71 in 6.2 mi WNW 15.0 mph - N/A   Drizzle
8:46 AM 50.0 °F 46.4 °F 87% 29.71 in 6.2 mi WNW 15.0 mph - N/A Rain Light Rain
8:55 AM 50.0 °F 48.2 °F 94% 29.71 in 6.2 mi WNW 17.3 mph - N/A Rain Light Rain
8:58 AM 50.0 °F 48.2 °F 94% 29.71 in 6.2 mi WNW 17.3 mph - N/A Rain Light Rain
9:03 AM 50.0 °F 46.4 °F 87% 29.71 in 6.2 mi WNW 16.1 mph - N/A Rain Light Rain
9:25 AM 50.0 °F 46.4 °F 87% 29.74 in 6.2 mi NW 16.1 mph - N/A Rain Light Rain
9:29 AM 50.0 °F 46.4 °F 87% 29.74 in 6.2 mi NW 15.0 mph - N/A Rain Drizzle
9:45 AM 51.8 °F 48.2 °F 88% 29.74 in 6.2 mi NW 12.7 mph - N/A   Mostly Cloudy
9:55 AM 50.0 °F 46.4 °F 87% 29.74 in 6.2 mi NW 15.0 mph - N/A   Overcast
10:08 AM 51.8 °F 46.4 °F 82% 29.74 in 6.2 mi NW 15.0 mph - N/A   Mostly Cloudy
10:12 AM 51.8 °F 46.4 °F 82% 29.74 in 6.2 mi NW 16.1 mph - N/A   Mostly Cloudy
10:16 AM 51.8 °F 48.2 °F 88% 29.74 in 6.2 mi NW 15.0 mph - N/A   Mostly Cloudy
10:17 AM 51.8 °F 48.2 °F 88% 29.74 in 6.2 mi WNW 15.0 mph - N/A   Mostly Cloudy
10:25 AM 53.6 °F 48.2 °F 82% 29.74 in 6.2 mi WNW 13.8 mph - N/A   Mostly Cloudy
10:55 AM 53.6 °F 46.4 °F 77% 29.74 in 6.2 mi WNW 15.0 mph - N/A   Overcast
11:25 AM 53.6 °F 48.2 °F 82% 29.77 in 6.2 mi WNW 16.1 mph - N/A   Scattered Clouds
11:55 AM 55.4 °F 48.2 °F 77% 29.77 in 6.2 mi NW 17.3 mph - N/A   Partly Cloudy
12:21 PM 57.2 °F 50.0 °F 77% 29.77 in 6.2 mi WNW 15.0 mph - N/A   Scattered Clouds
12:25 PM 57.2 °F 50.0 °F 77% 29.80 in 6.2 mi WNW 16.1 mph - N/A   Mostly Cloudy
12:29 PM 55.4 °F 48.2 °F 77% 29.80 in 6.2 mi NW 17.3 mph - N/A   Mostly Cloudy
12:37 PM 57.2 °F 48.2 °F 72% 29.80 in 6.2 mi NW 18.4 mph - N/A   Partly Cloudy
12:55 PM 55.4 °F 46.4 °F 72% 29.80 in 6.2 mi NW 19.6 mph - N/A   Scattered Clouds
1:25 PM 57.2 °F 46.4 °F 67% 29.80 in 6.2 mi NW 17.3 mph - N/A   Unknown
1:55 PM 57.2 °F 46.4 °F 67% 29.83 in 6.2 mi NW 16.1 mph - N/A   Partly Cloudy
2:25 PM 57.2 °F 48.2 °F 72% 29.83 in 6.2 mi NW 16.1 mph - N/A   Partly Cloudy
2:55 PM 59.0 °F 48.2 °F 67% 29.86 in 6.2 mi NW 16.1 mph - N/A   Scattered Clouds
3:25 PM 57.2 °F 46.4 °F 67% 29.86 in 6.2 mi WNW 13.8 mph - N/A   Scattered Clouds
3:55 PM 57.2 °F 48.2 °F 72% 29.86 in 6.2 mi WNW 15.0 mph - N/A   Mostly Cloudy
4:06 PM 57.2 °F 48.2 °F 72% 29.86 in 6.2 mi WNW 15.0 mph - N/A   Mostly Cloudy
4:20 PM 57.2 °F 46.4 °F 67% 29.86 in 6.2 mi WNW 16.1 mph - N/A   Scattered Clouds
4:25 PM 55.4 °F 46.4 °F 72% 29.86 in 6.2 mi WNW 16.1 mph - N/A   Unknown
4:55 PM 57.2 °F 46.4 °F 67% 29.89 in 6.2 mi WNW 16.1 mph - N/A   Partly Cloudy
5:25 PM 55.4 °F 46.4 °F 72% 29.89 in 6.2 mi WNW 16.1 mph - N/A   Partly Cloudy
5:55 PM 55.4 °F 46.4 °F 72% 29.89 in 6.2 mi WNW 18.4 mph - N/A   Partly Cloudy
6:25 PM 53.6 °F 44.6 °F 72% 29.89 in 6.2 mi WNW 17.3 mph - N/A   Partly Cloudy
6:55 PM 53.6 °F 44.6 °F 72% 29.92 in 6.2 mi WNW 15.0 mph - N/A   Unknown
7:25 PM 53.6 °F 44.6 °F 72% 29.92 in 6.2 mi WNW 15.0 mph - N/A   Mostly Cloudy
7:55 PM 53.6 °F 44.6 °F 72% 29.92 in 6.2 mi WNW 16.1 mph - N/A   Unknown
8:25 PM 53.6 °F 44.6 °F 72% 29.92 in 6.2 mi WNW 17.3 mph - N/A   Unknown
8:55 PM 53.6 °F 44.6 °F 72% 29.95 in 6.2 mi WNW 16.1 mph - N/A   Mostly Cloudy
9:25 PM 53.6 °F 44.6 °F 72% 29.95 in 6.2 mi WNW 16.1 mph - N/A   Partly Cloudy
9:55 PM 53.6 °F 46.4 °F 77% 29.95 in 6.2 mi West 17.3 mph - N/A   Mostly Cloudy
9:59 PM 53.6 °F 46.4 °F 77% 29.95 in 6.2 mi WNW 17.3 mph - N/A   Overcast
10:07 PM 53.6 °F 44.6 °F 72% 29.95 in 6.2 mi WNW 16.1 mph - N/A   Mostly Cloudy
10:25 PM 53.6 °F 44.6 °F 72% 29.95 in 6.2 mi WNW 16.1 mph - N/A   Overcast
10:55 PM 53.6 °F 44.6 °F 72% 29.95 in 6.2 mi NW 17.3 mph - N/A   Mostly Cloudy
11:25 PM 53.6 °F 44.6 °F 72% 29.95 in 6.2 mi WNW 16.1 mph - N/A   Unknown
11:55 PM 53.6 °F 44.6 °F 72% 29.95 in 6.2 mi WNW 18.4 mph - N/A   Partly Cloudy